EW0991 Weather Reports


time (UTC)temp
C
wind
direction
speed
KPH
gust
KPH
rain 1hr
cm
rain 24hr
cm
rain mn
cm
humidity
%
barometer
mb
20260505170058 26 228 0.0 0.0 0.00 0.00 0.00 37 1009.4
20260505164601 25 278 0.0 0.0 0.00 0.00 0.00 37 1009.8
20260505163052 25 258 0.0 0.0 0.00 0.00 0.00 40 1010.0
20260505161554 25 235 0.0 0.0 0.00 0.00 0.00 41 1010.2
20260505153044 23 269 0.0 0.0 0.00 0.00 0.00 45 1010.6
20260505151542 23 275 0.0 0.0 0.00 0.00 0.00 44 1010.7
20260505124514 18 264 0.0 0.0 0.00 0.00 0.00 60 1011.5
20260505123009 17 253 0.0 0.0 0.00 0.00 0.00 60 1011.2
20260505121522 17 224 0.0 0.0 0.00 0.00 0.00 64 1011.2
20260505120007 15 225 0.0 0.0 0.00 0.00 0.00 73 1011.2
20260505114505 13 6 0.0 0.0 0.00 0.00 0.00 84 1011.4
20260505113004 13 56 0.0 0.0 0.00 0.00 0.00 86 1011.1
20260505111503 12 56 0.0 0.0 0.00 0.00 0.00 87 1010.9
20260505101548 -17 0.0 0.0 0.00 0.00 0.00 1010.7
20260505100106 -17 0.0 0.0 0.00 0.00 0.00 1010.7
20260505094542 -17 0.0 0.0 0.00 0.00 0.00 1010.6
20260505093035 -17 0.0 0.0 0.00 0.00 0.00 1010.7
20260505091536 -17 0.0 0.0 0.00 0.00 0.00 1010.6
20260505090026 -17 0.0 0.0 0.00 0.00 0.00 1010.8
20260505084524 -17 0.0 0.0 0.00 0.00 0.00 1010.8
20260505083031 -17 0.0 0.0 0.00 0.00 0.00 1010.5
20260505081516 17 322 0.0 0.0 0.00 0.00 0.00 57 1010.7
20260505080015 17 295 0.0 0.0 0.00 0.00 0.00 57 1010.1
20260505074512 17 200 0.0 0.0 0.00 0.00 0.00 57 1010.1
20260505073009 17 195 0.0 0.0 0.00 0.00 0.00 57 1010.1
20260505071509 17 265 0.0 0.0 0.00 0.00 0.00 58 1010.3
20260505070008 16 243 0.0 0.0 0.00 0.00 0.00 59 1010.3
20260505064506 15 263 0.0 0.0 0.00 0.00 0.00 61 1010.3
20260505063007 15 247 0.0 0.0 0.00 0.00 0.00 62 1010.5
20260505061505 15 271 0.0 0.0 0.00 0.00 0.00 60 1010.5
20260505054621 16 274 0.0 0.0 0.00 0.00 0.00 56 1010.4
20260505053055 16 247 0.0 0.0 0.00 0.00 0.00 53 1010.3
20260505051553 17 259 0.0 0.0 0.00 0.00 0.00 51 1010.4
20260505041558 17 156 0.0 0.0 0.00 0.00 0.00 49 1010.2
20260505040045 17 263 0.0 0.0 0.00 0.00 0.00 48 1010.2
20260505034544 17 145 0.0 0.0 0.00 0.00 0.00 47 1010.0
20260505033045 17 205 0.0 0.0 0.00 0.00 0.00 47 1010.0
20260505031544 17 120 0.0 0.0 0.00 0.00 0.00 46 1010.0
20260505030056 17 117 0.0 0.0 0.00 0.00 0.00 46 1010.1
20260505024543 18 215 0.0 0.0 0.00 0.00 0.00 45 1010.2
20260505023042 18 229 0.0 0.0 0.00 0.00 0.00 44 1010.3
20260505021551 18 151 0.0 0.0 0.00 0.00 0.00 44 1010.5
20260505020052 18 212 0.0 0.0 0.00 0.00 0.00 44 1010.4
20260505014543 18 199 0.0 0.0 0.00 0.00 0.00 43 1010.4
20260505013042 18 153 0.0 0.0 0.00 0.00 0.00 43 1010.3
20260505011540 18 198 0.0 0.0 0.00 0.00 0.00 43 1010.2
20260505004539 18 233 0.0 0.0 0.00 0.00 0.00 44 1010.0
20260505003047 18 129 0.0 0.0 0.00 0.00 0.00 43 1010.0
20260505001540 18 117 0.0 0.0 0.00 0.00 0.00 42 1009.9
20260505000044 19 190 0.0 0.0 0.00 0.00 0.00 41 1009.9
20260504234536 20 186 0.0 0.0 0.00 0.00 0.00 40 1009.8
20260504233044 20 240 0.0 0.0 0.00 0.00 0.00 39 1009.7
20260504231537 21 168 0.0 0.0 0.00 0.00 0.00 38 1009.5
20260504230039 21 206 0.0 0.0 0.00 0.00 0.00 38 1009.5
20260504224541 21 175 0.0 0.0 0.00 0.00 0.00 38 1009.3
20260504223034 22 216 0.0 0.0 0.00 0.00 0.00 36 1009.3
20260504221532 22 170 0.0 0.0 0.00 0.00 0.00 34 1009.4
20260504220030 22 255 0.0 0.0 0.00 0.00 0.00 34 1009.6
20260504214539 22 233 0.0 0.0 0.00 0.00 0.00 34 1009.5
20260504213030 22 221 0.0 0.0 0.00 0.00 0.00 34 1009.6
20260504211527 22 254 0.0 0.0 0.00 0.00 0.00 35 1009.5
20260504210024 22 278 0.0 0.0 0.00 0.00 0.00 34 1009.8
20260504204524 21 249 0.0 0.0 0.00 0.00 0.00 34 1009.8
20260504203022 21 233 0.0 0.0 0.00 0.00 0.00 34 1010.0
20260504201522 21 273 0.0 0.0 0.00 0.00 0.00 35 1010.0
20260504200021 21 228 0.0 0.0 0.00 0.00 0.00 35 1010.2
20260504194518 21 245 0.0 0.0 0.00 0.00 0.00 36 1010.3
20260504193015 21 236 0.0 0.0 0.00 0.00 0.00 34 1010.5
20260504191515 21 240 0.0 0.0 0.00 0.00 0.00 37 1010.6
20260504190012 20 237 0.0 0.0 0.00 0.00 0.00 35 1010.8
20260504184508 20 245 0.0 0.0 0.00 0.00 0.00 37 1011.1
20260504183005 20 235 0.0 0.0 0.00 0.00 0.00 36 1011.2
20260504181504 20 236 0.0 0.0 0.00 0.00 0.00 36 1011.4
20260504180100 20 242 0.0 0.0 0.00 0.00 0.00 38 1011.6
20260504174559 20 252 0.0 0.0 0.00 0.00 0.00 37 1011.7
20260504173057 19 274 0.0 0.0 0.00 0.00 0.00 37 1012.0
20260504171553 19 123 0.0 0.0 0.00 0.00 0.00 39 1012.4